Location: Brachbach
(49.1847°N, 9.7240°E)
Time: 00:38:03
(UTC+00:00)

COSMOS 860 DEB - Pass Details

Date: 06 October 2024
Orbit: 883 x 993 km, 64.7° (Epoch: 17 November)

Event Time Altitude Azimuth Distance (km) Brightness Sun altitude
Rises 17:24:06 0° 308° (NW) 3,578 ? -6.6°
Reaches altitude 10° 17:27:19 10° 325° (NW) 2,655 ? -7.2°
Maximum altitude 17:31:53 21° 13° (NNE) 2,012 ? -7.9°
Drops below altitude 10° 17:36:32 10° 60° (ENE) 2,710 ? -8.7°
Enters shadow 17:37:27 - 66° (ENE) 2,955 ? -8.8°
